User: anonymous   Login
Location: Unspecified
(0.0000°N, 0.0000°E)
Time: 17:22:32
(UTC+01:00)
Language:

Cosmos 1703 - Orbit

View from above orbital plane
View from above orbital plane
View from above satellite
View from above satellite

Ground track
Ground track

The orbit data is extracted from the following two-line orbital elements,

1 16262U 85108A   14303.59346224  .00003655  00000-0  24570-3 0  5496
2 16262 082.4887 110.9373 0013109 012.4842 347.6708 15.06427203574028
Epoch (UTC): 30 October 2014 14:14:35
Eccentricity: 0.0013109
inclination: 82.4887°
perigee height: 538 km
apogee height: 556 km
right ascension of ascending node: 110.9373°
argument of perigee: 12.4842°
revolutions per day: 15.06427203
mean anomaly at epoch: 347.6708°
orbit number at epoch: 57402

The dashed part of the orbit path shows where the satellite is in the earth's shadow,  

DLR